CST,Max TemperatureF,Mean TemperatureF,Min TemperatureF,Max Dew PointF,MeanDew PointF,Min DewpointF,Max Humidity, Mean Humidity, Min Humidity, Max Sea Level PressureIn, Mean Sea Level PressureIn, Min Sea Level PressureIn, Max VisibilityMiles, Mean VisibilityMiles, Min VisibilityMiles, Max Wind SpeedMPH, Mean Wind SpeedMPH, Max Gust SpeedMPH,PrecipitationIn, CloudCover, Events, WindDirDegrees
2014-1-1,9,2,-5,-5,-9,-14,65,58,50,30.53,30.48,30.43,10,10,10,12,6,14,0.00,8,,358
2014-1-2,10,0,-11,-3,-6,-12,75,64,52,30.55,30.48,30.35,10,10,10,14,8,16,0.00,3,,335
2014-1-3,21,5,-11,12,0,-14,83,72,61,30.50,30.08,29.67,10,10,6,31,14,40,0.00,2,,163
2014-1-4,32,21,9,25,15,0,78,68,58,30.24,29.86,29.56,10,10,4,22,13,26,T,5,,287
2014-1-5,10,0,-11,-2,-13,-20,72,62,51,30.40,30.32,30.24,10,8,2,23,14,28,T,4,Snow,324
2014-1-6,-10,-15,-20,-20,-25,-30,69,62,54,30.40,30.31,30.21,10,9,3,23,13,29,T,5,,292
2014-1-7,4,-6,-16,-10,-15,-22,72,62,51,30.38,30.31,30.25,10,10,10,9,5,12,0.00,0,,203
2014-1-8,5,-4,-13,-7,-12,-18,83,72,60,30.62,30.52,30.37,10,10,9,9,2,10,0.00,0,,305
2014-1-9,21,3,-15,15,-2,-18,87,70,53,30.58,30.30,30.04,10,8,1,14,6,20,0.00,5,,160
2014-1-10,33,27,21,30,26,15,92,85,77,30.07,29.70,29.47,5,3,1,13,6,16,0.10,8,Rain-Snow,147
2014-1-11,32,30,27,28,26,22,92,82,72,29.79,29.58,29.46,10,7,2,21,8,26,0.02,8,,287
2014-1-12,43,34,25,30,26,21,88,73,57,29.75,29.59,29.47,10,10,8,26,11,33,0.00,3,,175
2014-1-13,37,32,26,30,25,19,89,71,52,29.73,29.64,29.52,10,10,7,18,8,22,T,4,Snow,244
2014-1-14,34,22,10,30,20,2,100,84,67,30.10,29.69,29.45,10,5,0,28,15,35,0.32,8,Fog-Snow,291
2014-1-15,21,10,-1,14,3,-5,95,78,61,30.21,29.97,29.57,10,9,2,24,9,31,0.01,5,Snow,207
2014-1-16,34,22,10,29,15,0,78,67,55,29.85,29.56,29.41,10,9,1,32,14,39,T,8,Snow,270
2014-1-17,16,8,-1,6,3,-5,83,71,59,30.08,29.94,29.82,10,8,2,21,12,25,0.03,5,Snow,311
2014-1-18,20,11,2,11,6,-1,96,82,67,30.00,29.81,29.67,10,5,0,13,6,18,0.15,6,Fog-Snow,95
2014-1-19,38,25,12,27,21,9,84,69,54,29.83,29.63,29.50,10,10,10,18,10,28,0.00,3,,236
2014-1-20,33,18,3,25,15,-9,78,64,49,30.41,29.96,29.68,10,8,1,25,12,34,0.04,7,Snow,335
2014-1-21,5,-4,-13,-4,-13,-20,70,58,46,30.52,30.37,30.08,10,9,3,16,5,20,T,2,Snow,229
2014-1-22,9,2,-5,2,-4,-15,83,68,53,30.46,30.08,29.95,10,6,2,28,14,32,0.02,6,Snow,317
2014-1-23,0,-5,-10,-14,-16,-18,72,62,51,30.77,30.67,30.49,10,10,10,18,10,22,0.00,0,,296
2014-1-24,35,13,-9,30,13,-13,85,69,53,30.43,29.75,29.43,10,8,2,23,14,31,0.03,7,Snow,221
2014-1-25,33,19,4,18,-2,-9,72,59,46,29.93,29.76,29.50,10,8,1,35,17,42,0.03,2,Snow,293
2014-1-26,21,11,0,12,2,-8,88,73,58,30.04,29.59,29.40,10,4,1,33,15,43,0.13,7,Snow,299
2014-1-27,0,-6,-12,-11,-18,-23,69,61,52,30.53,30.32,30.00,10,9,3,29,14,34,0.00,3,,294
2014-1-28,2,-8,-18,-12,-16,-23,74,63,51,30.51,30.40,30.25,10,10,10,15,7,18,0.00,0,,242
2014-1-29,29,9,-11,13,-2,-15,79,62,45,30.24,30.03,29.73,10,10,10,25,12,32,0.00,0,,173
2014-1-30,32,19,5,27,18,-4,92,71,49,30.07,29.62,29.48,10,6,0,28,12,33,0.10,6,Fog-Snow,196
2014-1-31,8,1,-7,-7,-10,-14,72,61,49,30.28,30.20,30.09,10,10,10,13,4,15,0.00,0,,335